Orbital Elements at Epoch 2459000.5 (2020-May-31.0) TDB
Reference: JPL 8 (heliocentric ecliptic J2000)
Element | Value | Uncertainty (1-sigma) | Units |
e | .1055261638470948 | 7.0265e-05 | |
a | 57.24741666716672 | 0.0028898 | au |
q | 51.20631639612439 | 0.0035391 | au |
i | 46.76622173862022 | 0.00021482 | deg |
node | 252.3942518035587 | 3.3112e-05 | deg |
peri | 285.5084257088261 | 0.02094 | deg |
M | 277.8076156635718 | 0.026089 | deg |
tp | 2495121.631455129049 (2119-Apr-24.13145513) | 8.8898 | TDB |
period | 158209.3940798743 433.15 | 11.979 0.0328 | d yr |
n | .002275465386197288 | 1.723e-07 | deg/d |
Q | 63.28851693820906 | 0.0031948 | au |
|
| | Orbit Determination Parameters
Additional Information
|